This demonstration page uses our WeatherBlox Daily Observations layout. Learn more.

Left ArrowRight Arrow

Hourly Observations for August 14, 2018

Temp ( °F °C ) Dew Point ( °F °C ) Humidity (%) Winds ( mph kmh ) Pressure ( in mb ) Visibility ( mi km ) Precip ( " mm )
12:15 am 00:15 Clear 65 18.1 65 18.1 100 100 Calm 30.06 1018 10 16 0.00 0.00
12:35 am 00:35 Clear 65 18.1 65 18.1 100 100 Calm 30.06 1018 10 16 0.00 0.00
12:55 am 00:55 Clear 64 17.5 64 17.5 100 100 Calm 30.06 1018 10 16 0.00 0.00
1:15 am 01:15 Clear 64 17.7 64 17.7 100 100 Calm 30.06 1018 10 16 0.00 0.00
1:35 am 01:35 Clear 63 17.1 63 17.1 100 100 NNE 3 6 30.06 1018 7 11 0.00 0.00
1:55 am 01:55 Clear 62 16.7 62 16.7 100 100 Calm 30.06 1018 7 11 0.00 0.00
2:15 am 02:15 Clear 63 17.2 63 17.2 100 100 Calm 30.06 1018 7 11 0.00 0.00
2:35 am 02:35 Clear 62 16.5 62 16.5 100 100 Calm 30.03 1017 7 11 0.00 0.00
2:55 am 02:55 Clear 61 16.3 61 16.3 100 100 Calm 30.03 1017 7 11 0.00 0.00
3:15 am 03:15 Clear 62 16.5 62 16.5 100 100 Calm 30.03 1017 7 11 0.00 0.00
3:35 am 03:35 Clear 62 16.4 62 16.4 100 100 Calm 30.03 1017 7 11 0.00 0.00
3:55 am 03:55 Partly Cloudy 61 16.1 61 16.1 100 100 SW 3 6 30.03 1017 7 11 0.00 0.00
4:15 am 04:15 Mostly Cloudy 63 17.1 63 17.1 100 100 Calm 30.03 1017 7 11 0.00 0.00
4:35 am 04:35 Cloudy 63 17.3 63 17.3 100 100 Calm 30.03 1017 7 11 0.00 0.00
4:55 am 04:55 Cloudy 64 17.5 64 17.5 100 100 Calm 30.03 1017 10 16 0.00 0.00
5:15 am 05:15 Cloudy 64 17.5 64 17.5 100 100 Calm 30.03 1017 10 16 0.00 0.00
5:35 am 05:35 Cloudy 63 17.4 63 17.4 100 100 Calm 30.03 1017 10 16 0.00 0.00
5:55 am 05:55 Mostly Cloudy 63 17 63 17 100 100 Calm 30.03 1017 10 16 0.00 0.00
6:15 am 06:15 Partly Cloudy 62 16.5 62 16.5 100 100 Calm 30.03 1017 7 11 0.00 0.00
6:35 am 06:35 Clear 61 16.3 61 16.3 100 100 Calm 30.03 1017 7 11 0.00 0.00
6:55 am 06:55 Clear with Mist and Fog 60 15.8 60 15.8 100 100 Calm 30.06 1018 5 8 0.00 0.00
7:15 am 07:15 Sunny with Mist and Fog 61 16.2 61 16.2 100 100 Calm 30.06 1018 5 8 0.00 0.00
7:35 am 07:35 Sunny with Mist and Fog 60 15.8 60 15.8 100 100 Calm 30.06 1018 4 6 0.00 0.00
7:55 am 07:55 Sunny 62 16.4 62 16.4 100 100 Calm 30.06 1018 7 11 0.00 0.00
8:15 am 08:15 Sunny 64 17.8 64 17.8 100 100 Calm 30.06 1018 10 16 0.00 0.00
8:35 am 08:35 Sunny 66 18.9 66 18.9 100 100 Calm 30.06 1018 10 16 0.00 0.00
8:55 am 08:55 Sunny 68 20.1 66 19.1 94 94 Calm 30.06 1018 10 16 0.00 0.00
9:15 am 09:15 Sunny 70 21.2 66 19.1 88 88 Calm 30.06 1018 10 16 0.00 0.00
9:35 am 09:35 Sunny 72 22.3 67 19.4 84 84 Calm 30.03 1017 10 16 0.00 0.00
9:55 am 09:55 Sunny 74 23.1 67 19.3 79 79 Calm 30.03 1017 10 16 0.00 0.00
10:15 am 10:15 Sunny 75 24 67 19.3 75 75 Calm 30.03 1017 10 16 0.00 0.00
10:35 am 10:35 Sunny 77 25 68 20 74 74 W 3 6 30.03 1017 10 16 0.00 0.00
10:55 am 10:55 Sunny 77 25.2 67 19.6 71 71 Calm 30.03 1017 10 16 0.00 0.00
11:15 am 11:15 Sunny 78 25.8 68 20.1 71 71 W 5 7 30.03 1017 10 16 0.00 0.00
11:35 am 11:35 Sunny 79 26.2 68 20.1 69 69 SW 5 7 30.03 1017 10 16 0.00 0.00
11:55 am 11:55 Sunny 79 26 68 19.9 69 69 WNW 5 7 30.03 1017 10 16 0.00 0.00
12:15 pm 12:15 Sunny 80 26.5 68 19.9 67 67 W 7 11 30.03 1017 10 16 0.00 0.00
12:35 pm 12:35 Sunny 80 26.5 67 19.6 66 66 W 5 7 30.03 1017 10 16 0.00 0.00
12:55 pm 12:55 Partly Cloudy 80 26.6 67 19.4 65 65 W 6 9 30.03 1017 10 16 0.00 0.00
1:15 pm 13:15 Partly Cloudy 79 26.2 67 19.2 65 65 WSW 5 7 30.03 1017 10 16 0.00 0.00
1:35 pm 13:35 Partly Cloudy 81 27 67 19.3 63 63 W 5 7 30.03 1017 10 16 0.00 0.00
1:55 pm 13:55 Partly Cloudy 81 27.1 65 18.6 60 60 W 8 13 30.03 1017 10 16 0.00 0.00
2:15 pm 14:15 Partly Cloudy 81 27.2 66 18.8 60 60 W 5 7 30.03 1017 10 16 0.00 0.00
2:35 pm 14:35 Sunny 81 27.4 67 19.2 61 61 WSW 7 11 30.00 1016 10 16 0.00 0.00
2:55 pm 14:55 Partly Cloudy 82 27.5 67 19.3 61 61 W 8 13 30.00 1016 10 16 0.00 0.00
3:15 pm 15:15 Partly Cloudy 82 27.7 67 19.7 62 62 W 8 13 30.00 1016 10 16 0.00 0.00
3:35 pm 15:35 Partly Cloudy 82 27.8 68 20.2 63 63 WSW 8 13 30.00 1016 10 16 0.00 0.00
3:55 pm 15:55 Sunny 82 28 67 19.6 60 60 W 7 11 30.00 1016 10 16 0.00 0.00
4:15 pm 16:15 Partly Cloudy 82 28 67 19.5 60 60 WSW 3 6 30.00 1016 10 16 0.00 0.00
4:35 pm 16:35 Sunny 82 28 67 19.6 60 60 W 9 15 30.00 1016 10 16 0.00 0.00
4:55 pm 16:55 Sunny 83 28.2 66 18.9 57 57 WSW 7 11 30.00 1016 10 16 0.00 0.00
5:15 pm 17:15 Sunny 83 28.1 67 19.2 58 58 W 7 11 29.97 1015 10 16 0.00 0.00
5:35 pm 17:35 Sunny 82 27.5 66 18.9 59 59 W 7 11 29.97 1015 10 16 0.00 0.00
5:55 pm 17:55 Sunny 82 27.6 67 19.2 60 60 WSW 6 9 29.97 1015 10 16 0.00 0.00
6:15 pm 18:15 Sunny 81 27.2 66 18.8 60 60 W 8 13 29.97 1015 10 16 0.00 0.00
6:35 pm 18:35 Sunny 80 26.5 66 18.8 63 63 W 6 9 29.97 1015 10 16 0.00 0.00
6:55 pm 18:55 Sunny 79 26.2 68 20 69 69 Calm 30.00 1016 10 16 0.00 0.00
7:15 pm 19:15 Sunny 78 25.5 68 20 72 72 Calm 29.97 1015 10 16 0.00 0.00
7:35 pm 19:35 Sunny 77 25 68 20 74 74 Calm 29.97 1015 10 16 0.00 0.00
7:55 pm 19:55 Sunny 76 24.5 69 20.6 79 79 Calm 29.97 1015 10 16 0.00 0.00
8:15 pm 20:15 Sunny 74 23.5 70 21.3 88 88 Calm 29.97 1015 10 16 0.00 0.00
8:35 pm 20:35 Sunny 74 23.1 71 21.5 91 91 Calm 29.97 1015 10 16 0.00 0.00
8:55 pm 20:55 Clear 72 22.1 70 21.2 95 95 Calm 29.97 1015 10 16 0.00 0.00
9:15 pm 21:15 Clear 70 21.2 70 20.9 98 98 Calm 29.97 1015 10 16 0.00 0.00
9:35 pm 21:35 Clear 69 20.5 69 20.4 99 99 Calm 30.03 1017 10 16 0.00 0.00
9:55 pm 21:55 Clear 68 20 68 20 100 100 Calm 30.03 1017 10 16 0.00 0.00
10:15 pm 22:15 Clear 68 20.2 68 20.1 99 99 Calm 30.03 1017 10 16 0.00 0.00
10:35 pm 22:35 Clear 68 20 68 20 100 100 Calm 30.03 1017 10 16 0.00 0.00
10:55 pm 22:55 Clear 68 19.9 67 19.7 99 99 Calm 30.03 1017 10 16 0.00 0.00
11:15 pm 23:15 Clear 67 19.4 67 19.4 100 100 Calm 30.03 1017 10 16 0.00 0.00
11:35 pm 23:35 Clear 66 19 66 19 100 100 Calm 30.03 1017 10 16 0.00 0.00
11:55 pm 23:55 Clear 65 18.4 65 18.4 100 100 Calm 30.03 1017 7 11 0.00 0.00

Powered by AerisWeather